Regional Weather Roundup
Issued by NWS

Home | Current Version | Previous Version | Graphics & Text | Print | Product List | Glossary On
Versions: 1 2 3 4 5 6 7 8 9 10 11 12 13 14 15 16 17 18 19 20 21 22 23 24 25 26 27 28 29 30 31 32 33 34 35 36 37 38 39 40 41 42 43 44 45 46 47 48 49 50
000
ASUS43 KLOT 150806
RWRIL

ILLINOIS REGIONAL WEATHER ROUNDUP
NATIONAL WEATHER SERVICE CHICAGO/ROMEOVILLE IL
300 AM CDT MON SEP 15 2014

NOTE: "FAIR" INDICATES FEW OR NO CLOUDS BELOW 12,000 FEET WITH NO
SIGNIFICANT WEATHER AND/OR OBSTRUCTIONS TO VISIBILITY.

* THESE STATIONS ARE NOT UNDER NWS QUALITY CONTROL. THEY ALSO MAY NOT
  REPORT WEATHER SUCH AS PRECIPITATION OR FOG.

ILZ001-002-007-009-015-016-024-150900-
NORTHWEST ILLINOIS

CITY           SKY/WX    TMP DP  RH WIND       PRES   REMARKS
MOLINE         CLOUDY    54  50  86 CALM      30.14F
STERLING*      MOCLDY    46  43  87 CALM      30.15S
SAVANNA*       PTCLDY    47  45  93 NE5       30.14F
$$

ILZ003-004-008-010-011-017-018-150900-
NORTH CENTRAL ILLINOIS

CITY           SKY/WX    TMP DP  RH WIND       PRES   REMARKS
ROCKFORD       CLOUDY    50  46  86 CALM      30.17F
FREEPORT*      CLOUDY    50  48  92 CALM      30.16F
ROCHELLE*      PTCLDY    46  44  93 CALM      30.15F
DE KALB*       PTCLDY    47  43  85 S3        30.16F
PERU*          MOCLDY    52  47  83 CALM      30.16S
$$

ILZ005-006-012>014-019>023-150900-
NORTHEAST ILLINOIS

CITY           SKY/WX    TMP DP  RH WIND       PRES   REMARKS
CHICAGO-OHARE  MOCLDY    51  46  83 CALM      30.16F
CHICAGO-MIDWAY MOCLDY    55  48  77 CALM      30.17F
AURORA         MOCLDY    48  44  86 CALM      30.16F
LANSING*       PTCLDY    49  46  90 CALM      30.19S
JOLIET*        PTCLDY    49  47  93 CALM      30.18F
WAUKEGAN       PTCLDY    51  45  79 CALM      30.15F
DUPAGE AIRPORT MOCLDY    50  47  89 SE3       30.15F
KANKAKEE*      PTCLDY    47  47  97 CALM      30.19S
WHEELING       MOCLDY    51  46  83 CALM      30.17F
MORRIS*        MOCLDY    50  50 100 E3        30.16F
ROMEOVILLE*    MOCLDY    49  48  97 SE6       30.17F
NORTHERLY ISL    N/A     58  45  62 SW5         N/A
$$

LMZ740>746-150900-
SOUTHERN LAKE MICHIGAN

STATION/POSITION SKY/WX   TEMP    WIND        PRES    VSBY  WAVE
                          AIR SEA DIR/SP/G                  HT/PER
                          (F)     (DEG/KT/KT) (MB)    (MI)  (FT/S)
SOUTHERN BUOY              63 64  240/ 12/ 14 1021.3F         2/ 3
WAUKEGAN HARBOR            56     250/  5/  6   N/A
HARRISON CRIB              60     200/  6/  7   N/A
BURNHAM HARBOR             58     220/  5       N/A
CALUMET HARBOR             55     200/  3/  5 1020.7F
MICHIGAN CITY              54     140/  7/  9   N/A
MICHIGAN CITY 6N           59 64  190/  8/ 10   N/A           1/ 2
ST. JOSEPH                 59 67  170/  8/ 10   N/A           1/ 2
$$

ILZ025>027-034>036-040-047-049-050-058-095>099-150900-
WEST-CENTRAL ILLINOIS

CITY           SKY/WX    TMP DP  RH WIND       PRES   REMARKS
QUINCY         CLOUDY    59  49  69 SE7       30.12F
GALESBURG*     RAIN      55  49  81 SE3       30.15F
MACOMB*        CLOUDY    54  53  96 S6        30.17F
JACKSONVILLE*  CLOUDY    58  52  81 SE3       30.17F
PITTSFIELD*    CLOUDY    57  51  80 CALM      30.16F
$$

ILZ028>032-037-038-041>044-048-051>054-059>061-150900-
CENTRAL ILLINOIS

CITY           SKY/WX    TMP DP  RH WIND       PRES   REMARKS
PONTIAC        MOCLDY    52  50  93 SE3       30.16F
DECATUR        PTCLDY    50  47  89 CALM      30.18F
PEORIA         CLOUDY    57  48  72 CALM      30.16F
LACON*         CLOUDY    52  49  87 CALM      30.16R
LINCOLN*       CLOUDY    51  48  87 CALM      30.16S
SPRINGFIELD    CLOUDY    56  51  84 CALM      30.18S
TAYLORVILLE    CLOUDY    52  46  82 S3        30.17F
$$

ILZ033-039-045-046-055>057-062-063-150900-
EAST-CENTRAL ILLINOIS

CITY           SKY/WX    TMP DP  RH WIND       PRES   REMARKS
CHAMPAIGN      CLEAR     48  45  89 CALM      30.20S
DANVILLE*      CLEAR     45  45  98 CALM      30.17F
RANTOUL*       CLEAR     49  45  88 CALM      30.20F
MATTOON        CLEAR     49  46  90 S5        30.18F
PARIS*         CLEAR     44  44  99 CALM      30.20F
$$

ILZ079-100>102-150900-
SOUTHWEST ILLINOIS

CITY           SKY/WX    TMP DP  RH WIND       PRES   REMARKS
ALTON          CLOUDY    54  51  91 CALM      30.17F
CAHOKIA*       PTCLDY    54  51  90 CALM      30.17S
SPARTA*        CLEAR     53  49  89 SE3       30.18S
$$

ILZ064>066-069>071-074>076-080>082-084>086-088>090-092>094-150900-
SOUTH-CENTRAL ILLINOIS

CITY           SKY/WX    TMP DP  RH WIND       PRES   REMARKS
CARBONDALE     PTCLDY    50  48  93 CALM      30.17F
CAIRO*         PTCLDY    54  51  91 CALM      30.18S FOG
EFFINGHAM*     PTCLDY    46  44  92 CALM      30.19F FOG
MARION         PTCLDY    55  52  88 CALM      30.18F
MT. VERNON     PTCLDY    48  43  81 CALM      30.18F
CENTRALIA*     CLEAR     50  47  89 E3        30.17F
SALEM*         CLEAR     55  50  82 E3        30.18F
METROPOLIS*    PTCLDY    52  52 100 CALM      30.18S
$$

ILZ067-068-072-073-078-083-087-091-150900-
SOUTHEAST ILLINOIS

CITY           SKY/WX    TMP DP  RH WIND       PRES   REMARKS
LAWRENCEVILLE  CLEAR     49  47  93 E3        30.20S
FLORA*         CLEAR     46  46  97 CALM      30.20F
FAIRFIELD*     CLEAR    N/A N/A N/A CALM      30.19S
HARRISBURG*    PTCLDY    50  50 100 CALM      30.19F
ROBINSON*      CLEAR     46  46  99 CALM      30.21S
CARMI*         CLEAR     50  50 100 CALM      30.19F
$$

ABBREVIATIONS USED IN REMARKS
   TC - TEMPERATURE IN CELSIUS
  WCI - WIND CHILL INDEX
   HX - HEAT INDEX
  VSB - VISIBILITY
$$




USA.gov is the U.S. government's official web portal to all federal, state and local government web resources and services.